Vertical_Velocity
0 0 -0 -1 -3 -4 -3 -2 0 2 4 4 3 2 1 2 2 3 3 4 4 3 3 2 2 2 1 1 1 1 1 0 1 0 0 -0 -1 -1 -1 -0 0 1 0 -0 -0 -1 -1 -1 -1 -1 -1 -1 -1 -0 -0 0 1 0 0 -0 -0 0 0 -0 -1 0 2 2 2
-1 -0 1 2 2 0 -1 -2 1 4 5 4 4 3 3 4 5 4 4 4 3 2 1 1 1 1 1 -0 0 0 1 1 0 -0 -0 -1 -1 -1 -0 0 -0 -0 -1 -1 -1 -2 -1 -1 -1 -1 -0 -0 0 0 0 1 1 0 -0 -1 -1 -0 0 -1 -1 0 2 2 2
2 2 3 4 4 4 4 4 5 5 4 3 3 3 4 4 4 4 3 2 1 1 0 -0 -1 -1 -1 -1 -1 -0 1 1 0 -0 -1 -1 -1 -0 -0 -0 -1 -1 -2 -2 -2 -2 -1 -1 -1 -1 -1 -1 -0 0 1 2 2 1 0 -1 -1 -0 -0 -1 -0 1 1 1 1
5 5 4 4 5 6 7 7 6 4 3 2 1 1 1 1 1 1 1 1 1 1 0 -0 -1 -2 -2 -2 -2 -1 0 1 0 -0 -1 -1 -0 -1 -1 -1 -1 -2 -2 -2 -1 -1 -1 -1 -1 -1 -1 -1 -1 -1 0 1 2 2 1 0 0 -0 -0 -1 -0 0 1 1 1
6 6 6 5 6 6 6 6 6 5 3 2 2 1 1 -0 -0 -0 -0 0 0 1 1 1 0 -1 -2 -2 -1 -1 -0 0 0 0 0 -0 -0 -1 -1 -2 -2 -2 -2 -2 -1 -1 -1 -1 -1 -1 -1 -1 -1 -1 -0 0 1 1 1 1 1 0 -0 -0 -0 -0 0 1 0
6 6 6 6 6 5 5 4 4 4 3 3 3 2 1 -1 -1 -1 -0 -1 -1 -0 1 2 1 1 -0 -1 -1 -1 -1 -1 -0 0 1 0 -1 -1 -2 -2 -2 -2 -2 -2 -1 -1 -1 -1 -1 -1 -1 -1 -1 -1 -1 -0 -0 -0 -0 0 1 1 1 -0 -1 -0 0 0 0
3 4 5 6 6 6 5 4 4 3 3 3 3 2 1 -0 -0 -0 -0 -1 -1 -0 0 1 2 2 1 0 -0 -1 -1 -1 -1 -0 0 0 -1 -1 -2 -2 -2 -2 -2 -2 -2 -1 -1 -1 -0 -1 -1 -0 -0 -1 -1 -1 -1 -1 -1 -1 -0 0 0 -0 0 0 0 0 -0
0 2 3 4 5 5 5 4 4 4 4 3 2 1 0 -0 -0 -1 -1 -1 -1 -0 0 1 1 1 1 -0 -1 -1 -2 -1 -1 -0 0 -0 -1 -1 -1 -1 -1 -1 -2 -2 -1 -1 -1 -0 0 -0 -1 -1 -1 -1 -1 -1 -1 -1 -1 -1 -1 -1 -0 -0 0 0 0 0 -0
-0 0 1 2 2 3 3 4 5 5 5 3 2 1 0 -0 -0 -0 -0 -1 -1 -0 0 1 0 0 -0 -1 -1 -2 -2 -2 -1 -0 -0 -1 -1 -1 -2 -1 -1 -1 -1 -1 -0 -0 -0 -0 -0 -1 -1 -1 -1 -1 -1 -1 -1 -1 -1 -1 -1 -1 -1 -1 -1 -0 -0 -0 -1
-1 1 2 2 2 2 3 3 4 5 4 3 2 1 0 0 0 0 0 -0 -0 0 0 -0 -0 -0 -1 -1 -2 -2 -2 -2 -1 -1 -1 -1 -1 -1 -1 -2 -1 -1 -1 -1 0 1 1 0 -0 -0 -1 -1 -1 -1 -1 -1 -1 -1 -2 -2 -2 -2 -2 -2 -1 -1 -1 -1 -2
-2 0 2 4 3 3 3 2 3 3 3 3 2 1 1 1 1 1 1 1 1 1 -0 -1 -1 -1 -1 -1 -1 -1 -2 -2 -1 -1 -1 -1 -1 -1 -1 -1 -1 -0 0 -0 -0 0 1 0 -0 -0 -0 -0 -0 -0 -1 -1 -1 -1 -1 -1 -2 -1 -1 -1 -1 -1 -1 -1 -1
-10 -8 -5 -3 -1 -0 0 0 1 2 3 3 2 2 2 2 2 2 1 2 2 1 0 -0 -0 -0 -1 -1 -1 -1 -2 -2 -2 -2 -2 -1 -1 -1 -1 -1 -0 0 0 -0 -0 -0 0 -0 -0 -0 0 0 1 1 0 -0 -1 -1 -1 -1 -1 -1 -1 -1 -1 -1 -1 -0 1
-11 -8 -5 -4 -3 -2 -0 1 2 3 3 3 3 3 3 3 3 3 3 2 2 1 1 0 0 -0 -0 -1 -1 -2 -2 -2 -2 -2 -2 -1 -0 0 1 1 1 1 0 -0 -0 -0 -0 -0 -0 -0 0 1 1 1 1 1 0 0 -0 -0 -0 -0 0 0 -0 -1 -1 -1 1
0 1 1 0 0 0 1 2 3 3 4 4 4 4 4 4 4 3 3 2 2 1 1 0 0 0 -0 -1 -1 -2 -2 -3 -2 -2 -2 -1 0 1 2 1 0 0 -0 -0 -1 -1 -1 -1 -1 -0 0 1 1 1 1 1 1 1 1 1 0 1 1 1 0 -0 -1 -1 -0
2 1 0 -0 0 1 1 2 2 2 2 3 3 4 4 4 3 3 2 1 1 1 0 1 0 -0 -1 -1 -1 -2 -2 -2 -2 -1 -1 -1 1 1 1 0 -0 -1 -1 -1 -1 -1 -1 -1 -1 -0 -0 0 0 1 1 1 1 1 1 1 1 1 1 1 0 -0 -0 -0 -0
-1 -1 -1 -1 -0 0 1 1 1 1 2 2 3 3 4 3 2 2 1 1 0 0 0 0 -0 -1 -2 -2 -2 -2 -1 -1 -1 -1 -0 -0 0 1 0 -1 -1 -1 -1 -0 -0 -0 -0 -1 -1 -1 -0 -0 0 0 1 1 1 1 1 1 1 1 1 1 0 0 0 0 1
-1 -1 -0 0 0 1 1 1 2 2 2 3 3 3 3 2 2 1 1 0 -0 -0 -0 -1 -1 -2 -3 -3 -3 -2 -1 -1 -1 -0 -0 -0 -0 -0 -0 -1 -1 -1 -1 -1 -1 -1 -1 -1 -1 -1 -1 -0 0 0 0 -0 0 0 1 1 2 1 1 1 0 0 0 1 1
0 0 1 1 2 2 2 2 3 3 3 4 4 3 3 2 1 1 0 -0 -1 -1 -1 -2 -2 -3 -3 -3 -3 -2 -1 -0 -0 -1 -1 -1 -1 -1 -1 -1 -0 -1 -1 -1 -1 -1 -1 -1 -1 -0 -0 -0 -0 -0 -0 -0 -0 -0 0 1 1 1 1 1 -0 -0 0 1 1
0 1 1 2 2 3 3 3 3 4 4 4 3 3 2 1 1 -0 -1 -1 -2 -2 -2 -2 -3 -3 -3 -2 -2 -1 -0 0 0 -0 -0 -1 -0 -1 -1 -1 -1 -1 -1 -1 -1 -1 -1 -0 -0 -0 -0 -0 -1 -0 -0 -0 -1 -0 -0 1 1 1 1 0 -0 -0 -0 0 1
0 1 1 2 3 4 4 4 4 4 3 3 3 2 2 1 -0 -1 -2 -2 -2 -2 -2 -3 -3 -3 -2 -1 -1 -0 0 1 1 1 0 -0 -0 -0 -0 -0 -0 -1 -1 -0 -0 -0 -0 -0 -0 -0 -0 -0 -1 -1 -1 -0 -0 -0 -0 1 1 1 1 0 -0 -0 -0 -0 0
0 1 2 4 4 4 4 3 3 3 3 2 2 1 1 -0 -1 -1 -2 -2 -2 -2 -3 -3 -3 -2 -2 -1 -1 -0 0 1 1 1 0 0 0 0 0 0 -0 -0 -0 -0 -0 -0 -0 -0 0 0 0 -0 -0 -1 -1 -1 -0 -0 -0 0 1 1 1 0 0 -0 -0 -0 0
0 1 3 4 5 4 4 3 3 2 2 1 1 1 0 -0 -1 -1 -1 -2 -2 -2 -2 -3 -2 -2 -2 -1 -1 -1 -0 -0 0 -0 -0 -0 -0 0 0 1 0 0 0 0 0 0 0 0 1 1 1 0 -0 -0 -0 -0 -0 -0 -0 0 1 1 1 1 0 0 -0 -0 -0
1 2 3 4 4 4 3 2 2 2 1 1 0 0 0 -0 -0 -1 -1 -1 -1 -2 -2 -2 -2 -2 -1 -1 -1 -1 -1 -1 -1 -1 -1 -1 -1 -1 -0 0 0 0 -0 0 0 0 0 0 1 1 1 0 0 0 0 -0 -0 -0 -0 0 0 0 0 0 0 0 0 -0 -0
1 2 2 3 3 3 2 2 2 2 1 1 0 0 0 0 -0 -0 -0 -1 -1 -1 -1 -1 -1 -1 -1 -1 -1 -1 -1 -2 -1 -1 -1 -1 -1 -1 -1 -1 -1 -0 -0 -0 0 0 0 0 0 1 1 1 0 0 0 0 0 0 -0 0 -0 -0 -0 -0 0 1 1 0 -0
1 1 2 3 2 2 2 2 2 2 1 1 0 0 0 0 0 0 -0 -0 -1 -1 -1 -1 -1 -1 -1 -1 -1 -1 -1 -1 -1 -1 -1 -1 -1 -1 -1 -1 -1 -1 -0 -0 0 0 0 0 -0 0 0 1 0 0 0 -0 -0 -0 -0 -0 -0 -0 -0 -0 0 1 1 0 -0
1 1 1 1 2 2 2 2 2 2 2 1 0 0 0 1 1 1 0 0 -0 -0 -0 -0 -0 -0 -0 -0 -0 -1 -1 -1 -1 -1 -1 -1 -1 -1 -1 -1 -1 -0 0 1 1 0 0 0 0 -0 -0 -0 0 -0 -0 -0 -0 -0 -0 -0 -0 -0 -0 0 0 1 1 1 -0
1 1 1 1 1 1 1 2 3 3 2 1 0 1 1 1 1 1 1 1 1 1 0 0 -0 -0 -0 -0 -0 -0 -0 -0 -0 -0 -0 -0 -0 -0 0 0 0 1 1 1 0 -0 -0 1 1 0 -0 -1 -0 0 0 -0 -0 -0 -0 -0 -0 -0 0 1 1 1 1 0 -0
1 1 1 1 1 1 2 3 3 2 2 1 1 1 1 1 1 1 1 0 0 0 0 0 0 -0 -0 -1 -1 -1 -0 -0 -0 -0 -0 -0 -0 -0 0 0 0 0 0 0 -0 -0 0 1 1 1 -0 -1 -0 0 0 1 0 -0 -0 -0 -0 -0 0 1 1 1 1 1 -0
2 1 1 0 0 1 2 3 3 3 2 2 2 1 1 1 1 1 1 1 0 -0 -0 -0 -0 -0 -0 -1 -1 -1 -1 -1 -1 -1 -0 -0 -0 -0 -0 -0 -1 -1 -1 -1 -1 -0 1 1 1 1 0 -1 -1 -1 -0 -0 -0 -0 -0 -0 -0 0 1 1 1 1 1 1 0
2 1 1 -0 0 1 2 3 3 4 3 2 2 1 1 1 1 1 1 1 0 0 -0 -0 -0 -0 -0 -0 -0 -0 -1 -0 -1 -1 -1 -1 -1 -1 -1 -1 -1 -1 -1 -1 -1 -0 0 1 1 1 1 0 -1 -1 -0 0 0 0 -0 -0 0 0 1 1 1 1 1 1 0
2 1 0 0 1 1 2 3 4 4 3 2 1 1 1 1 1 1 1 1 1 0 -0 -0 -1 -1 -0 -0 -0 -0 -0 -0 -1 -1 -1 -1 -1 -1 -1 -1 -1 -1 -1 -1 -1 -1 -0 -0 0 0 0 0 -1 -1 -0 0 0 -0 -0 -0 -0 0 1 1 1 1 1 0 0
2 1 1 0 1 1 2 3 3 3 2 1 1 1 1 1 1 1 1 1 1 0 0 -0 -1 -1 -1 -1 -0 -0 -0 -0 -1 -1 -1 -0 -0 -1 -1 -1 -2 -2 -2 -1 -1 -1 -1 -0 -0 -0 -0 -1 -1 -0 1 0 -0 -0 -1 -0 -0 0 1 1 1 1 0 0 0
2 1 1 0 0 1 2 3 2 2 1 1 1 1 1 1 1 1 1 0 0 0 0 -0 -0 -1 -1 -0 -0 -0 -0 -0 -1 -1 -1 -0 -0 -1 -1 -1 -2 -1 -1 -1 -2 -1 -1 -1 -1 -1 -0 -1 -0 0 1 0 -0 -1 -1 -0 0 1 1 1 1 0 0 0 0
2 1 1 0 1 1 2 2 2 1 1 1 0 1 1 1 1 1 0 0 0 0 0 0 0 0 0 0 1 1 0 -0 -0 -0 -0 -1 -1 -1 -1 -2 -2 -2 -2 -2 -2 -2 -2 -1 -1 -1 -1 -1 0 1 0 0 -0 -1 -0 -0 1 1 1 1 1 0 0 0 0
2 1 1 0 1 1 2 2 1 1 1 0 0 1 1 2 1 1 1 0 0 -0 -0 0 1 1 1 1 1 1 0 -0 -0 -0 -1 -1 -1 -1 -1 -2 -2 -2 -2 -2 -2 -2 -2 -2 -1 -1 -1 -0 0 1 1 0 -0 -0 -0 0 1 1 1 1 0 0 0 0 1
2 2 1 1 1 2 2 1 1 1 0 -0 0 1 2 2 2 2 1 1 0 -0 -0 0 1 1 1 0 0 0 -0 -0 -1 -1 -1 -1 -1 -1 -1 -2 -2 -2 -2 -2 -2 -2 -2 -2 -1 -1 -0 1 1 1 0 0 -0 -0 0 0 0 1 0 0 0 0 0 0 0
2 2 2 2 2 2 2 1 1 0 -0 -1 1 2 2 2 2 1 1 1 1 -0 -1 -0 0 1 1 0 -0 -1 -1 -1 -1 -1 -1 -1 -1 -1 -1 -2 -2 -2 -2 -1 -1 -2 -2 -2 -1 -0 0 0 0 0 0 0 -0 -0 -0 -0 0 0 0 0 -0 0 0 0 0
2 2 2 2 2 2 2 1 1 -0 -1 -0 2 3 3 2 1 1 1 1 1 -0 -1 -1 -0 0 0 -0 -1 -1 -1 -1 -0 -1 -1 -0 -0 -1 -1 -2 -2 -2 -2 -1 -2 -2 -2 -1 -0 0 0 0 0 -0 -0 -0 -0 -0 -0 -0 0 0 0 0 0 0 0 0 0
2 2 2 2 2 2 2 1 0 -0 0 1 2 3 2 1 1 1 1 1 0 -0 -1 -1 -0 -0 -0 -1 -1 -1 -1 -0 -0 -0 -0 -0 -0 -0 -1 -1 -1 -1 -1 -1 -2 -2 -2 -1 -0 -0 -0 -0 -0 -0 -0 -0 -1 -1 -0 -0 0 0 0 0 0 0 0 0 0
3 2 2 2 2 2 2 1 0 0 1 2 2 2 2 1 1 1 0 -0 -0 -1 -1 -1 -1 -1 -1 -1 -1 -1 -1 -0 -0 -0 -0 -0 -0 -0 -0 -1 -1 -1 -1 -1 -2 -2 -2 -1 -1 -1 -0 -1 -1 -1 -1 -1 -1 -1 -1 -0 -0 0 0 1 1 1 1 1 0
2 2 2 1 2 2 2 1 1 1 1 1 1 1 2 2 1 0 -0 -0 -0 -1 -1 -0 -1 -1 -1 -1 -1 -1 -1 -0 -0 -0 -0 -0 -0 0 0 -0 -0 -1 -1 -1 -1 -2 -2 -2 -1 -1 -1 -1 -1 -1 -1 -1 -1 -1 -1 -0 -0 -0 0 0 1 1 1 1 1
Height
1519 1519 1520 1521 1522 1524 1525 1527 1528 1529 1529 1528 1528 1529 1529 1529 1530 1530 1530 1530 1531 1531 1532 1532 1532 1533 1533 1533 1533 1533 1533 1533 1533 1533 1532 1532 1532 1531 1530 1530 1530 1530 1529 1529 1529 1528 1528 1527 1527 1526 1525 1525 1525 1524 1524 1524 1523 1522 1522 1521 1520 1520 1520 1519 1519 1519 1519 1519 1519
1519 1520 1520 1521 1522 1523 1525 1526 1526 1526 1525 1526 1526 1527 1527 1527 1528 1528 1529 1529 1530 1530 1530 1530 1530 1530 1531 1531 1531 1531 1531 1531 1531 1530 1530 1530 1529 1529 1528 1528 1528 1527 1527 1527 1526 1526 1525 1525 1525 1524 1523 1523 1523 1522 1522 1521 1521 1520 1520 1519 1519 1518 1517 1517 1517 1517 1517 1517 1516
1519 1520 1520 1521 1522 1523 1524 1524 1524 1524 1524 1524 1525 1525 1525 1526 1527 1527 1527 1528 1528 1528 1528 1528 1528 1529 1529 1529 1529 1529 1529 1529 1529 1528 1528 1527 1527 1526 1526 1526 1525 1525 1525 1525 1524 1524 1523 1523 1522 1522 1521 1521 1520 1520 1520 1519 1519 1518 1517 1517 1516 1516 1515 1515 1515 1515 1515 1515 1515
1519 1520 1520 1520 1521 1521 1522 1522 1522 1522 1522 1523 1523 1524 1524 1525 1525 1526 1526 1526 1526 1526 1526 1526 1526 1526 1527 1527 1527 1527 1527 1527 1526 1526 1525 1525 1525 1524 1524 1524 1524 1523 1523 1523 1522 1521 1521 1520 1520 1520 1519 1519 1518 1518 1517 1517 1517 1516 1515 1515 1515 1514 1513 1513 1513 1513 1513 1512 1512
1518 1518 1519 1519 1520 1520 1520 1520 1520 1520 1520 1521 1521 1522 1522 1523 1524 1524 1524 1524 1524 1524 1524 1524 1524 1524 1524 1525 1525 1525 1525 1525 1524 1524 1524 1523 1523 1522 1522 1522 1522 1521 1521 1520 1520 1519 1519 1518 1518 1517 1517 1516 1516 1515 1515 1515 1515 1514 1514 1513 1513 1512 1511 1511 1511 1511 1510 1510 1510
1516 1517 1517 1518 1518 1518 1518 1519 1519 1519 1519 1519 1520 1520 1520 1521 1521 1522 1522 1522 1522 1522 1522 1522 1522 1522 1522 1522 1522 1523 1523 1522 1522 1522 1522 1521 1521 1521 1520 1520 1520 1519 1519 1518 1517 1517 1516 1516 1515 1515 1515 1514 1514 1513 1513 1513 1512 1512 1511 1511 1511 1510 1510 1509 1509 1509 1509 1509 1509
1515 1515 1516 1516 1516 1517 1517 1517 1517 1517 1517 1517 1518 1518 1519 1519 1519 1520 1520 1520 1520 1520 1520 1520 1520 1520 1520 1520 1520 1520 1520 1520 1520 1520 1520 1520 1519 1519 1518 1518 1517 1517 1516 1516 1515 1515 1514 1514 1513 1513 1512 1512 1511 1511 1511 1510 1510 1510 1510 1509 1509 1509 1508 1508 1508 1507 1507 1507 1507
1514 1514 1515 1515 1515 1515 1516 1516 1516 1516 1516 1516 1516 1516 1517 1517 1517 1518 1518 1518 1518 1519 1519 1519 1519 1519 1519 1518 1518 1518 1519 1519 1519 1519 1518 1518 1517 1517 1516 1516 1515 1515 1514 1514 1513 1512 1512 1511 1511 1510 1510 1510 1510 1509 1509 1509 1508 1508 1508 1507 1507 1507 1507 1506 1506 1506 1506 1506 1506
1512 1513 1514 1514 1514 1514 1515 1515 1515 1515 1514 1515 1515 1515 1515 1515 1516 1516 1516 1516 1517 1517 1517 1517 1517 1517 1517 1517 1517 1517 1517 1517 1517 1517 1516 1516 1515 1515 1514 1514 1513 1512 1512 1511 1511 1510 1510 1510 1509 1509 1508 1508 1507 1507 1507 1507 1506 1506 1506 1506 1505 1505 1505 1505 1505 1505 1505 1505 1504
1511 1511 1512 1512 1512 1513 1513 1513 1513 1513 1513 1513 1513 1513 1514 1514 1514 1515 1515 1515 1515 1515 1515 1515 1515 1515 1515 1515 1515 1515 1515 1515 1515 1515 1515 1514 1514 1513 1512 1511 1511 1510 1510 1509 1509 1508 1508 1508 1507 1507 1506 1506 1505 1505 1505 1505 1505 1504 1504 1504 1504 1504 1504 1504 1503 1503 1503 1503 1503
1509 1510 1510 1511 1511 1511 1511 1512 1512 1512 1512 1511 1511 1512 1512 1513 1513 1513 1513 1513 1514 1514 1514 1514 1514 1514 1514 1514 1514 1514 1514 1514 1513 1513 1512 1512 1511 1511 1510 1509 1509 1508 1508 1507 1506 1506 1506 1505 1505 1505 1505 1504 1504 1504 1503 1503 1503 1503 1503 1503 1503 1503 1502 1502 1502 1502 1502 1502 1502
1509 1509 1510 1510 1510 1510 1510 1510 1510 1510 1510 1510 1510 1510 1511 1511 1511 1511 1511 1511 1512 1512 1512 1512 1512 1512 1512 1512 1512 1512 1512 1512 1511 1511 1510 1510 1509 1509 1508 1507 1507 1506 1505 1505 1505 1504 1504 1504 1503 1503 1503 1503 1502 1502 1502 1502 1501 1501 1501 1501 1501 1501 1501 1501 1501 1501 1501 1501 1501
1507 1507 1508 1508 1508 1508 1508 1508 1508 1508 1508 1508 1508 1509 1509 1509 1509 1509 1510 1510 1510 1510 1510 1510 1510 1510 1510 1510 1510 1510 1510 1510 1509 1509 1508 1508 1507 1507 1506 1505 1505 1504 1504 1503 1502 1502 1502 1501 1501 1501 1501 1501 1501 1501 1501 1500 1500 1500 1500 1500 1500 1500 1500 1500 1500 1500 1500 1500 1500
1503 1504 1504 1505 1505 1505 1506 1506 1506 1506 1506 1506 1507 1507 1507 1507 1508 1508 1508 1508 1508 1508 1509 1509 1509 1509 1509 1509 1509 1509 1508 1508 1507 1507 1506 1506 1505 1505 1504 1504 1503 1502 1501 1501 1500 1500 1500 1500 1500 1500 1500 1500 1500 1500 1500 1500 1499 1499 1499 1499 1499 1499 1499 1499 1499 1499 1499 1499 1499
1500 1500 1501 1502 1503 1503 1504 1504 1505 1505 1505 1505 1506 1506 1506 1506 1506 1506 1506 1506 1507 1507 1507 1507 1507 1507 1507 1507 1507 1507 1506 1506 1505 1505 1504 1504 1503 1503 1502 1501 1501 1500 1500 1499 1499 1498 1498 1498 1498 1498 1498 1498 1498 1498 1498 1498 1498 1498 1498 1498 1498 1498 1498 1498 1498 1498 1498 1498 1498
1498 1499 1500 1500 1501 1502 1502 1503 1503 1504 1504 1504 1505 1505 1505 1505 1505 1505 1505 1505 1505 1505 1505 1505 1505 1505 1505 1505 1505 1505 1505 1504 1503 1503 1502 1502 1501 1500 1500 1500 1499 1498 1498 1497 1497 1497 1496 1496 1496 1496 1496 1496 1496 1497 1497 1497 1497 1497 1497 1497 1497 1497 1497 1496 1496 1496 1497 1497 1497
1496 1497 1498 1499 1499 1500 1500 1501 1501 1502 1503 1503 1503 1503 1503 1503 1503 1504 1504 1504 1504 1504 1504 1504 1504 1504 1504 1503 1503 1503 1502 1502 1501 1501 1500 1500 1499 1499 1498 1498 1497 1497 1496 1496 1495 1495 1495 1494 1494 1494 1494 1495 1495 1495 1495 1495 1495 1495 1495 1495 1495 1495 1495 1495 1495 1495 1495 1495 1496
1494 1495 1496 1497 1498 1498 1499 1499 1500 1500 1501 1501 1502 1502 1502 1502 1502 1502 1502 1502 1502 1503 1503 1502 1502 1502 1502 1501 1501 1501 1500 1500 1499 1499 1498 1498 1497 1497 1496 1496 1495 1495 1494 1494 1494 1493 1493 1493 1492 1492 1493 1493 1493 1493 1493 1493 1494 1494 1494 1494 1494 1494 1494 1494 1494 1494 1494 1495 1495
1493 1494 1495 1495 1496 1496 1497 1498 1498 1499 1499 1500 1500 1500 1500 1500 1500 1500 1500 1501 1501 1501 1501 1501 1500 1500 1500 1500 1499 1499 1499 1498 1497 1497 1496 1496 1495 1495 1495 1494 1494 1493 1493 1492 1492 1491 1491 1491 1491 1491 1491 1491 1491 1491 1491 1492 1492 1492 1492 1492 1493 1492 1492 1492 1492 1493 1493 1493 1493
1491 1492 1493 1494 1494 1495 1496 1496 1497 1497 1498 1498 1498 1499 1499 1499 1499 1499 1499 1499 1499 1499 1499 1499 1499 1498 1498 1498 1497 1497 1496 1496 1496 1495 1495 1494 1494 1493 1493 1492 1492 1491 1491 1490 1490 1490 1490 1489 1489 1489 1489 1489 1489 1490 1490 1490 1490 1490 1490 1491 1491 1491 1491 1491 1491 1491 1492 1492 1492
1490 1491 1491 1492 1493 1494 1494 1495 1495 1495 1496 1496 1497 1497 1497 1497 1497 1497 1497 1498 1498 1497 1497 1497 1497 1496 1496 1495 1495 1495 1495 1494 1494 1493 1493 1492 1492 1492 1491 1491 1490 1490 1489 1489 1489 1488 1488 1487 1487 1487 1487 1487 1487 1488 1488 1488 1488 1488 1489 1489 1489 1489 1489 1489 1490 1490 1490 1490 1490
1489 1490 1490 1491 1491 1492 1493 1493 1494 1494 1495 1495 1495 1495 1495 1496 1496 1496 1496 1496 1496 1495 1495 1495 1495 1494 1494 1494 1493 1493 1492 1492 1492 1491 1491 1490 1490 1490 1489 1489 1489 1488 1488 1487 1487 1486 1486 1486 1486 1485 1485 1485 1485 1485 1486 1486 1486 1486 1487 1487 1487 1487 1487 1488 1488 1488 1488 1489 1489
1487 1488 1489 1489 1490 1490 1491 1491 1492 1492 1493 1493 1494 1494 1494 1494 1494 1494 1494 1494 1494 1494 1493 1493 1493 1492 1492 1492 1491 1491 1490 1490 1490 1490 1489 1489 1488 1488 1487 1487 1486 1486 1486 1485 1485 1485 1485 1484 1484 1484 1484 1484 1484 1484 1484 1484 1484 1484 1485 1485 1485 1485 1485 1486 1486 1486 1486 1487 1487
1486 1486 1487 1488 1488 1489 1489 1490 1490 1491 1491 1492 1492 1492 1493 1493 1493 1493 1493 1492 1492 1492 1492 1491 1491 1491 1490 1490 1490 1489 1489 1488 1488 1487 1487 1486 1486 1485 1485 1485 1484 1484 1484 1483 1483 1483 1482 1482 1482 1482 1482 1482 1482 1482 1482 1482 1482 1482 1483 1483 1483 1483 1484 1484 1484 1485 1485 1485 1485
1484 1485 1485 1486 1486 1487 1488 1488 1489 1490 1490 1490 1490 1491 1491 1491 1491 1491 1491 1491 1490 1490 1490 1490 1489 1489 1489 1488 1488 1487 1487 1486 1486 1485 1485 1485 1484 1484 1483 1483 1482 1482 1481 1481 1481 1481 1480 1480 1480 1480 1480 1480 1480 1480 1480 1480 1480 1480 1480 1481 1481 1481 1482 1482 1482 1483 1483 1483 1483
1482 1483 1484 1484 1485 1485 1486 1487 1487 1488 1488 1489 1489 1489 1489 1490 1490 1490 1489 1489 1489 1489 1488 1488 1488 1487 1487 1486 1486 1485 1485 1485 1484 1483 1483 1483 1482 1482 1481 1481 1480 1480 1480 1479 1479 1479 1479 1478 1478 1478 1478 1478 1478 1478 1478 1478 1478 1478 1479 1479 1479 1480 1480 1480 1480 1480 1481 1481 1481
1480 1481 1481 1482 1483 1484 1484 1485 1486 1486 1487 1487 1487 1487 1488 1488 1488 1488 1488 1487 1487 1487 1486 1486 1486 1485 1485 1485 1484 1484 1483 1483 1482 1482 1481 1481 1480 1480 1480 1479 1479 1478 1478 1477 1477 1477 1476 1476 1476 1476 1475 1475 1475 1476 1476 1476 1476 1476 1476 1477 1477 1478 1478 1478 1479 1479 1479 1479 1479
1478 1479 1480 1480 1481 1482 1483 1483 1484 1485 1485 1485 1485 1486 1486 1486 1486 1486 1486 1485 1485 1485 1485 1484 1484 1484 1483 1483 1482 1482 1481 1481 1480 1480 1480 1479 1479 1478 1478 1477 1477 1476 1476 1475 1475 1475 1475 1475 1474 1474 1474 1473 1473 1474 1474 1474 1474 1474 1475 1475 1475 1476 1476 1476 1477 1477 1477 1477 1478
1476 1477 1478 1479 1479 1480 1481 1481 1482 1483 1483 1483 1484 1484 1484 1484 1484 1484 1484 1484 1484 1483 1483 1482 1482 1482 1481 1481 1480 1480 1480 1479 1479 1478 1478 1477 1477 1476 1476 1475 1475 1474 1474 1473 1473 1473 1473 1473 1472 1472 1472 1471 1471 1472 1472 1472 1472 1473 1473 1473 1474 1474 1475 1475 1475 1475 1476 1476 1476
1475 1475 1476 1477 1477 1478 1479 1480 1480 1481 1481 1481 1482 1482 1482 1482 1482 1482 1482 1482 1482 1481 1481 1480 1480 1480 1480 1479 1479 1478 1478 1477 1477 1476 1476 1475 1475 1475 1474 1473 1473 1472 1471 1471 1470 1470 1470 1470 1470 1470 1470 1470 1470 1470 1470 1471 1471 1471 1471 1472 1472 1473 1473 1474 1474 1474 1475 1475 1475
1473 1473 1474 1475 1475 1476 1477 1478 1478 1479 1479 1480 1480 1480 1480 1480 1480 1480 1480 1480 1480 1480 1479 1479 1479 1478 1478 1477 1477 1476 1476 1476 1475 1475 1474 1474 1473 1473 1472 1471 1470 1470 1469 1469 1469 1469 1469 1469 1468 1469 1469 1469 1469 1469 1469 1469 1470 1470 1470 1470 1471 1472 1472 1473 1473 1473 1474 1474 1474
1471 1471 1472 1473 1473 1474 1475 1475 1476 1477 1477 1477 1478 1478 1478 1478 1478 1479 1479 1479 1478 1478 1478 1477 1477 1476 1476 1475 1475 1475 1474 1474 1474 1473 1472 1472 1472 1471 1470 1470 1469 1468 1468 1467 1467 1467 1467 1467 1467 1467 1467 1468 1468 1468 1468 1468 1469 1469 1469 1470 1470 1471 1471 1472 1472 1473 1473 1473 1474
1469 1470 1470 1471 1471 1472 1473 1474 1474 1475 1475 1475 1475 1476 1476 1476 1476 1477 1477 1477 1477 1476 1476 1475 1475 1475 1474 1474 1473 1473 1473 1472 1472 1471 1471 1470 1470 1470 1469 1468 1468 1467 1466 1466 1465 1465 1465 1465 1466 1466 1467 1466 1467 1467 1468 1468 1468 1468 1469 1469 1470 1470 1471 1471 1472 1472 1472 1473 1473
1467 1468 1468 1469 1470 1470 1471 1472 1472 1473 1473 1473 1474 1474 1474 1475 1475 1475 1475 1475 1475 1475 1474 1474 1473 1473 1473 1472 1472 1472 1471 1471 1470 1470 1470 1469 1469 1468 1468 1467 1466 1466 1465 1465 1465 1465 1465 1465 1465 1465 1466 1466 1466 1467 1467 1467 1467 1468 1468 1469 1469 1470 1470 1471 1471 1471 1472 1472 1472
1465 1466 1466 1467 1468 1468 1469 1470 1470 1470 1471 1471 1471 1472 1472 1472 1473 1473 1473 1473 1473 1473 1472 1472 1472 1471 1471 1471 1470 1470 1470 1470 1469 1469 1468 1468 1467 1467 1466 1466 1465 1465 1465 1465 1464 1464 1464 1465 1465 1465 1465 1465 1466 1466 1466 1467 1467 1467 1468 1468 1469 1469 1470 1470 1470 1471 1471 1471 1472
1464 1464 1465 1465 1466 1466 1467 1467 1468 1468 1469 1469 1470 1470 1470 1470 1471 1471 1471 1471 1471 1471 1471 1470 1470 1470 1470 1469 1469 1469 1468 1468 1467 1467 1467 1467 1466 1466 1465 1465 1465 1465 1464 1464 1464 1464 1464 1464 1464 1464 1465 1465 1465 1466 1466 1466 1467 1467 1467 1468 1468 1469 1469 1470 1470 1470 1470 1471 1471
1462 1463 1463 1463 1464 1464 1465 1465 1466 1466 1466 1467 1467 1468 1468 1468 1469 1469 1469 1470 1469 1469 1469 1469 1468 1468 1468 1467 1467 1467 1466 1466 1466 1466 1466 1465 1465 1465 1464 1464 1464 1464 1464 1464 1464 1464 1464 1464 1464 1464 1465 1465 1465 1465 1466 1466 1466 1466 1467 1467 1468 1468 1469 1469 1469 1470 1470 1470 1471
1460 1461 1461 1461 1462 1462 1463 1463 1463 1464 1464 1465 1465 1465 1466 1466 1466 1467 1467 1467 1468 1468 1467 1467 1466 1466 1466 1465 1465 1465 1465 1465 1465 1465 1465 1465 1464 1464 1464 1463 1463 1463 1463 1464 1464 1464 1464 1464 1464 1464 1464 1465 1465 1465 1465 1465 1466 1466 1466 1467 1467 1468 1468 1468 1469 1469 1470 1470 1470
1459 1459 1459 1460 1460 1460 1460 1461 1461 1461 1462 1462 1463 1463 1464 1464 1464 1465 1465 1465 1465 1465 1465 1465 1465 1464 1464 1464 1464 1463 1463 1463 1463 1464 1464 1463 1463 1463 1463 1463 1463 1463 1463 1463 1463 1463 1463 1463 1463 1464 1464 1464 1464 1465 1465 1465 1465 1465 1465 1466 1466 1467 1467 1468 1468 1469 1469 1470 1470
1457 1457 1457 1457 1458 1458 1458 1458 1459 1459 1460 1460 1460 1461 1461 1462 1462 1463 1463 1463 1463 1463 1463 1463 1463 1462 1462 1462 1462 1462 1461 1462 1462 1462 1462 1462 1462 1462 1462 1462 1462 1462 1462 1462 1462 1462 1462 1463 1463 1463 1463 1463 1464 1464 1464 1464 1465 1465 1465 1465 1466 1466 1467 1467 1468 1468 1469 1469 1470
1455 1455 1455 1455 1455 1455 1456 1456 1456 1457 1457 1458 1458 1459 1459 1460 1460 1460 1461 1461 1461 1461 1461 1461 1461 1460 1460 1460 1460 1460 1460 1460 1460 1460 1461 1461 1461 1461 1461 1461 1461 1461 1461 1461 1462 1462 1462 1462 1462 1462 1463 1463 1463 1463 1463 1464 1464 1464 1464 1465 1465 1466 1466 1467 1468 1468 1469 1469 1470